TimeCET,TemperatureF,Dew PointF,Humidity,Sea Level PressureIn,VisibilityMPH,Wind Direction,Wind SpeedMPH,Gust SpeedMPH,PrecipitationIn,Events,Conditions,WindDirDegrees,DateUTC
1:00 AM,31,30,93,30.05,,ENE,8.9,,,,,70,2013-03-29 00:00:00
5:15 AM,33.8,30.2,87,29.95,4.3,East,8.1,-,N/A,,Overcast,80,2013-03-29 04:15:00
5:25 AM,33.8,30.2,87,29.95,-9999.0,East,9.2,-,N/A,,Unknown,90,2013-03-29 04:25:00
5:45 AM,33.8,30.2,87,29.95,4.3,East,5.8,-,N/A,Rain,Light Rain,80,2013-03-29 04:45:00
6:00 AM,-9999,-9999,N/A,-9999,4.3,East,8.1,-,N/A,,Overcast,80,2013-03-29 05:00:00
6:15 AM,33.8,30.2,87,29.92,4.3,ENE,6.9,-,N/A,,Overcast,60,2013-03-29 05:15:00
6:45 AM,35.6,32.0,87,29.92,5.0,ENE,9.2,-,N/A,,Overcast,60,2013-03-29 05:45:00
7:00 AM,35,31,82,29.92,5,ENE,8.9,,,Rain,Light Rain,60,2013-03-29 06:00:00
7:15 AM,35.6,32.0,87,29.89,-9999.0,East,9.2,-,N/A,,Clear,90,2013-03-29 06:15:00
7:45 AM,37.4,32.0,81,29.89,-9999.0,East,10.4,-,N/A,,Clear,80,2013-03-29 06:45:00
8:15 AM,37.4,32.0,81,29.89,-9999.0,East,8.1,-,N/A,,Clear,80,2013-03-29 07:15:00
8:45 AM,37.4,32.0,81,29.89,-9999.0,East,8.1,-,N/A,,Clear,90,2013-03-29 07:45:00
9:00 AM,-9999,-9999,N/A,-9999,4.3,East,9.2,-,N/A,Rain,Light Rain,100,2013-03-29 08:00:00
9:15 AM,39.2,32.0,75,29.89,-9999.0,East,6.9,-,N/A,,Clear,100,2013-03-29 08:15:00
9:45 AM,41.0,32.0,70,29.86,-9999.0,East,9.2,-,N/A,,Clear,90,2013-03-29 08:45:00
10:15 AM,41.0,33.8,76,29.86,-9999.0,East,8.1,-,N/A,,Clear,90,2013-03-29 09:15:00
10:45 AM,42.8,33.8,70,29.83,-9999.0,East,9.2,-,N/A,,Clear,80,2013-03-29 09:45:00
11:15 AM,42.8,33.8,70,29.83,6.2,ENE,6.9,-,N/A,Rain,Light Rain,70,2013-03-29 10:15:00
11:45 AM,42.8,35.6,76,29.83,6.2,East,5.8,-,N/A,Rain,Light Rain,80,2013-03-29 10:45:00
12:00 PM,-9999,-9999,N/A,-9999,4.3,East,9.2,-,N/A,Rain,Light Rain,100,2013-03-29 11:00:00
12:15 PM,44.6,35.6,71,29.80,6.2,East,6.9,-,N/A,Rain,Light Rain,90,2013-03-29 11:15:00
12:45 PM,44.6,37.4,76,29.80,6.2,East,6.9,-,N/A,Rain,Light Rain,90,2013-03-29 11:45:00
1:00 PM,44,38,71,29.81,6,East,6.7,,,Rain,Light Rain,90,2013-03-29 12:00:00
1:15 PM,44.6,39.2,81,29.80,5.6,East,4.6,-,N/A,Rain,Light Rain,90,2013-03-29 12:15:00
1:45 PM,42.8,39.2,87,29.80,4.3,East,2.3,-,N/A,Rain,Rain,80,2013-03-29 12:45:00
1:56 PM,42.8,41.0,93,29.80,-9999.0,East,2.3,-,N/A,Rain,Rain,100,2013-03-29 12:56:00
2:45 PM,44.6,42.8,93,29.77,-9999.0,ESE,5.8,-,N/A,Rain,Light Rain,110,2013-03-29 13:45:00
3:15 PM,46.4,44.6,93,29.74,4.3,SSE,10.4,-,N/A,Rain,Light Rain,160,2013-03-29 14:15:00
3:45 PM,46.4,44.6,93,29.74,3.7,South,11.5,-,N/A,Rain,Light Rain,170,2013-03-29 14:45:00
4:15 PM,46.4,44.6,93,29.74,-9999.0,SW,9.2,-,N/A,Rain,Rain,230,2013-03-29 15:15:00
4:17 PM,46.4,44.6,93,29.77,-9999.0,SSW,6.9,-,N/A,,Unknown,210,2013-03-29 15:17:00
4:45 PM,44.6,44.6,100,29.74,1.9,WSW,4.6,-,N/A,Rain,Rain,250,2013-03-29 15:45:00
6:00 PM,-9999,-9999,N/A,-9999,-9999.0,North,-9999.0,-,N/A,,Unknown,0,2013-03-29 17:00:00
7:00 PM,43,42,96,29.76,,WSW,11.2,,,,,250,2013-03-29 18:00:00